Location: Landeleau
(48.2273°N, 3.7285°W)
Time: 18:06:05
(UTC+00:00)

STARLINK-1125 - Pass Details

Date: 30 March 2020
Orbit: 548 x 551 km, 53.0° (Epoch: 29 May)

Event Time Altitude Azimuth Distance (km) Brightness Sun altitude
Rises 19:44:06 0° 295° (WNW) 2,729 9.3 -10.7°
Reaches altitude 10° 19:46:24 10° 290° (WNW) 1,832 7.9 -11.1°
Maximum altitude 19:50:24 48° 216° (SW) 724 4.3 -11.7°
Enters shadow 19:53:47 14° 144° (SE) 1,589 5.5 -12.2°
